This is the latest recevied weather packets stored in our database for station/object W8KVG. If no packets are shown the sender has not sent any weather packets the latest 10 day(s).
| Time | Temp. | Humidity | Pressure | Rain* | Wind** | Luminosity | Snow |
|---|---|---|---|---|---|---|---|
| 1778103828 | 12.78° C | 66% | 1010.4 hPa | 0 mm | - | 84 W/m² | - |
| 1778103526 | 12.78° C | 67% | 1010.6 hPa | 0 mm | - | 86 W/m² | - |
| 1778103223 | 12.78° C | 67% | 1010.4 hPa | 0 mm | - | 65 W/m² | - |
| 1778102920 | 12.78° C | 68% | 1010.2 hPa | 0 mm | - | 55 W/m² | - |
| 1778102616 | 12.78° C | 67% | 1010.2 hPa | 0 mm | - | 120 W/m² | - |
| 1778102311 | 12.78° C | 70% | 1010.2 hPa | 0 mm | - | 96 W/m² | - |
| 1778102007 | 12.78° C | 68% | 1010.3 hPa | 0 mm | - | 102 W/m² | - |
| 1778101705 | 13.33° C | 66% | 1010.4 hPa | 0 mm | - | 104 W/m² | - |
| 1778101401 | 13.33° C | 66% | 1010.2 hPa | 0 mm | - | 212 W/m² | - |
| 1778101099 | 12.78° C | 70% | 1010.2 hPa | 0 mm | - | 191 W/m² | - |
| 1778100794 | 12.22° C | 70% | 1010.1 hPa | 0 mm | - | 174 W/m² | - |
| 1778100491 | 12.78° C | 71% | 1009.7 hPa | 0 mm | - | 121 W/m² | - |
| 1778100189 | 12.22° C | 73% | 1009.6 hPa | 0 mm | - | 114 W/m² | - |
| 1778099887 | 12.22° C | 73% | 1009.7 hPa | 0 mm | - | 92 W/m² | - |
| 1778099584 | 12.22° C | 75% | 1009.7 hPa | 0 mm | - | 64 W/m² | - |
| 1778099280 | 12.22° C | 74% | 1009.7 hPa | 0 mm | - | 43 W/m² | - |
| 1778098977 | 12.22° C | 72% | 1009.9 hPa | 0 mm | - | 57 W/m² | - |
| 1778098673 | 12.78° C | 74% | 1009.7 hPa | 0 mm | - | 152 W/m² | - |
| 1778098370 | 13.33° C | 74% | 1009.7 hPa | 0 mm | - | 122 W/m² | - |
| 1778098068 | 12.78° C | 73% | 1009.6 hPa | 0 mm | - | 113 W/m² | - |
| 1778097764 | 12.78° C | 73% | 1010 hPa | 0 mm | - | 172 W/m² | - |
| 1778097460 | 13.33° C | 75% | 1009.9 hPa | 0 mm | - | 217 W/m² | - |
| 1778097157 | 12.22° C | 76% | 1009.7 hPa | 0 mm | - | 172 W/m² | - |
| 1778096854 | 12.22° C | 74% | 1009.9 hPa | 0 mm | - | 119 W/m² | - |
| 1778096550 | 12.22° C | 74% | 1010.1 hPa | 0 mm | - | 71 W/m² | - |
* Rain latest hour (hover to see other rain measurements)
** Current wind speed in m/s (hover to see current wind gust speed)